contact:dominique.lefevre@mio.osupytheas.fr, maurice.libes@osupytheas.fr, didier.mallarino@osupytheas.fr
Project:EMSO http://www.emso-fr.org/EMSO-France
Depth: 2436.0 m
Title:EMSO Ligure Ouest : Data MII capteur AQUADOPP
Date,Latitude,Longitude,X_East,Y_North,Z_Up,Amplitude_X,Amplitude_Y,Amplitude_Z,Batterie,SoundSpeed,Heading,Pitch,Roll,Pressure,TIS,Speed,Direction
, degrees North, degrees East, m.s-1, m.s-1,m.s-1, 1, 1, 1, Volt, m.s-1, degree, degree, degree, dbar, degree_C, m.s-1, degree
2022-01-10T00:04:03,42.805,6.029,-0.004,0.0,-0.039,102.0,101.0,100.0,13.3,1505.2,328.8,-0.8,1.8,2470.327,13.29,0.004,270.0
2022-01-10T00:07:03,42.805,6.029,-0.007,0.027,-0.004,102.0,102.0,103.0,13.4,1505.2,331.8,-0.8,1.8,2470.305,13.29,0.027,345.5
2022-01-10T00:10:03,42.805,6.029,0.01,0.016,-0.005,103.0,103.0,100.0,13.4,1505.2,323.8,-0.8,1.8,2470.31,13.29,0.018,32.0
2022-01-10T00:13:03,42.805,6.029,0.009,-0.018,-0.02,103.0,102.0,102.0,13.4,1505.2,331.6,-0.7,1.8,2470.319,13.29,0.02,153.4
2022-01-10T00:16:03,42.805,6.029,-0.022,0.012,-0.01,104.0,102.0,100.0,13.4,1505.2,326.7,-0.7,1.8,2470.334,13.29,0.025,298.6
2022-01-10T00:19:03,42.805,6.029,-0.006,-0.003,0.0,101.0,103.0,101.0,13.4,1505.2,331.4,-0.7,1.8,2470.284,13.29,0.006,243.4
2022-01-10T00:22:03,42.805,6.029,0.0,0.012,-0.015,103.0,104.0,101.0,13.4,1505.2,328.6,-0.8,1.8,2470.314,13.29,0.012,0.0
2022-01-10T00:25:03,42.805,6.029,0.004,0.002,0.01,102.0,102.0,101.0,13.4,1505.2,327.8,-0.8,1.8,2470.341,13.29,0.004,63.4
2022-01-10T00:28:03,42.805,6.029,-0.004,0.0,0.005,102.0,101.0,100.0,13.4,1505.2,326.6,-0.7,1.8,2470.333,13.29,0.004,270.0
2022-01-10T00:31:03,42.805,6.029,0.0,0.011,-0.015,102.0,103.0,101.0,13.3,1505.2,327.4,-0.7,1.9,2470.297,13.29,0.011,0.0
2022-01-10T00:34:03,42.805,6.029,0.0,0.026,0.002,103.0,102.0,101.0,13.4,1505.2,326.3,-0.8,1.8,2470.275,13.29,0.026,0.0
2022-01-10T00:37:03,42.805,6.029,-0.007,0.009,-0.007,102.0,100.0,103.0,13.4,1505.2,328.2,-0.7,1.8,2470.287,13.29,0.011,322.1
2022-01-10T00:40:03,42.805,6.029,-0.001,-0.01,0.011,101.0,102.0,103.0,13.4,1505.2,329.7,-0.8,1.8,2470.283,13.29,0.01,185.7
2022-01-10T00:43:03,42.805,6.029,-0.003,0.012,0.016,102.0,103.0,101.0,13.4,1505.2,329.1,-0.8,1.8,2470.286,13.29,0.012,346.0
2022-01-10T00:46:03,42.805,6.029,0.004,-0.006,-0.024,102.0,103.0,100.0,13.4,1505.2,328.6,-0.8,1.8,2470.298,13.29,0.007,146.3
2022-01-10T00:49:03,42.805,6.029,0.0,0.003,0.002,102.0,103.0,101.0,13.4,1505.2,329.1,-0.7,1.8,2470.283,13.29,0.003,0.0
2022-01-10T00:52:03,42.805,6.029,0.004,0.0,-0.027,101.0,102.0,102.0,13.3,1505.2,329.9,-0.8,1.8,2470.276,13.29,0.004,90.0
2022-01-10T00:55:03,42.805,6.029,-0.004,-0.014,-0.02,103.0,102.0,101.0,13.3,1505.2,324.2,-0.8,1.8,2470.269,13.29,0.014,195.9
2022-01-10T00:58:03,42.805,6.029,0.015,0.014,0.007,102.0,102.0,101.0,13.3,1505.2,323.6,-0.8,1.8,2470.282,13.29,0.02,47.0
2022-01-10T01:04:03,42.805,6.029,0.004,-0.002,-0.023,106.0,101.0,104.0,13.4,1505.2,331.6,-0.8,1.8,2470.348,13.28,0.004,116.6
2022-01-10T01:07:03,42.805,6.029,0.019,-0.021,-0.014,103.0,101.0,102.0,13.4,1505.2,326.9,-0.7,1.8,2470.343,13.28,0.028,137.9
2022-01-10T01:10:03,42.805,6.029,0.02,-0.013,0.005,103.0,101.0,102.0,13.4,1505.2,329.6,-0.7,1.8,2470.356,13.28,0.023,123.0
2022-01-10T01:13:03,42.805,6.029,-0.002,0.01,0.031,102.0,103.0,101.0,13.3,1505.2,329.9,-0.8,1.8,2470.338,13.28,0.01,348.7
2022-01-10T01:16:03,42.805,6.029,-0.016,-0.005,-0.017,103.0,103.0,102.0,13.4,1505.2,324.6,-0.8,1.8,2470.31,13.28,0.016,252.6
2022-01-10T01:19:03,42.805,6.029,0.009,-0.018,-0.03,102.0,104.0,101.0,13.4,1505.2,329.0,-0.7,1.8,2470.37,13.28,0.02,153.4
2022-01-10T01:22:03,42.805,6.029,0.017,-0.017,-0.012,101.0,104.0,102.0,13.4,1505.2,326.7,-0.8,1.8,2470.402,13.28,0.024,135.0
2022-01-10T01:25:03,42.805,6.029,-0.025,-0.015,-0.021,104.0,102.0,102.0,13.4,1505.2,326.6,-0.8,1.8,2470.417,13.29,0.029,239.0
2022-01-10T01:28:03,42.805,6.029,0.016,-0.011,0.003,105.0,103.0,101.0,13.3,1505.2,326.5,-0.8,1.8,2470.435,13.28,0.019,124.5
2022-01-10T01:31:03,42.805,6.029,-0.003,0.0,-0.024,102.0,101.0,100.0,13.4,1505.2,326.3,-0.8,1.8,2470.432,13.29,0.003,270.0
2022-01-10T01:34:03,42.805,6.029,0.009,-0.012,-0.028,102.0,100.0,101.0,13.4,1505.2,328.3,-0.7,1.8,2470.396,13.29,0.015,143.1
2022-01-10T01:37:03,42.805,6.029,0.002,-0.002,-0.006,103.0,102.0,102.0,13.3,1505.2,324.5,-0.7,1.8,2470.433,13.29,0.002,135.0
2022-01-10T01:40:03,42.805,6.029,-0.004,-0.001,-0.015,101.0,102.0,101.0,13.4,1505.2,324.6,-0.8,1.8,2470.412,13.29,0.004,256.0
2022-01-10T01:43:03,42.805,6.029,0.013,0.0,0.006,101.0,102.0,101.0,13.3,1505.2,326.5,-0.7,1.8,2470.431,13.29,0.013,90.0
2022-01-10T01:46:03,42.805,6.029,-0.001,-0.001,-0.019,101.0,101.0,101.0,13.3,1505.2,329.2,-0.8,1.8,2470.407,13.29,0.001,225.0
2022-01-10T01:49:03,42.805,6.029,0.012,-0.018,-0.007,101.0,102.0,101.0,13.4,1505.2,325.8,-0.8,1.9,2470.444,13.29,0.021,146.3
2022-01-10T01:52:03,42.805,6.029,-0.009,-0.007,-0.017,103.0,102.0,100.0,13.4,1505.2,325.5,-0.7,1.8,2470.471,13.29,0.011,232.1
2022-01-10T01:55:03,42.805,6.029,-0.019,-0.002,-0.023,102.0,104.0,100.0,13.3,1505.2,327.5,-0.8,1.8,2470.513,13.29,0.019,264.0
2022-01-10T01:58:03,42.805,6.029,-0.027,-0.015,-0.014,103.0,102.0,100.0,13.4,1505.2,324.9,-0.8,1.8,2470.453,13.29,0.03,240.9
2022-01-10T02:04:03,42.805,6.029,0.018,-0.01,-0.012,104.0,102.0,101.0,13.3,1505.2,323.6,-0.8,1.8,2470.475,13.28,0.02,119.1
2022-01-10T02:07:03,42.805,6.029,0.002,0.005,0.01,101.0,103.0,101.0,13.3,1505.2,330.7,-0.8,1.8,2470.459,13.28,0.005,21.8
2022-01-10T02:10:03,42.805,6.029,0.0,-0.012,-0.003,101.0,102.0,101.0,13.4,1505.2,324.7,-0.8,1.8,2470.464,13.29,0.012,180.0
2022-01-10T02:13:03,42.805,6.029,-0.002,-0.012,-0.024,101.0,104.0,100.0,13.3,1505.2,327.2,-0.7,1.8,2470.482,13.29,0.012,189.5
2022-01-10T02:16:03,42.805,6.029,-0.01,-0.014,-0.029,103.0,102.0,100.0,13.4,1505.2,330.8,-0.8,1.8,2470.467,13.29,0.017,215.5
2022-01-10T02:19:03,42.805,6.029,0.009,0.006,-0.017,103.0,100.0,101.0,13.3,1505.2,330.5,-0.8,1.8,2470.477,13.29,0.01,56.3
2022-01-10T02:22:03,42.805,6.029,0.001,-0.005,-0.024,104.0,102.0,100.0,13.3,1505.2,331.6,-0.8,1.8,2470.48,13.29,0.005,168.7
2022-01-10T02:25:03,42.805,6.029,0.005,-0.021,-0.041,101.0,102.0,101.0,13.4,1505.2,332.1,-0.7,1.8,2470.444,13.28,0.021,166.6
2022-01-10T02:28:03,42.805,6.029,0.012,-0.01,-0.015,103.0,101.0,101.0,13.4,1505.2,329.3,-0.7,1.8,2470.504,13.29,0.015,129.8
2022-01-10T02:31:03,42.805,6.029,0.009,-0.012,-0.003,104.0,101.0,101.0,13.4,1505.2,325.9,-0.7,1.8,2470.475,13.28,0.015,143.1
2022-01-10T02:34:03,42.805,6.029,0.01,-0.011,0.017,103.0,102.0,100.0,13.4,1505.2,328.0,-0.8,1.8,2470.471,13.28,0.014,137.7
2022-01-10T02:37:03,42.805,6.029,0.019,-0.013,0.006,102.0,102.0,101.0,13.4,1505.2,329.8,-0.7,1.8,2470.51,13.28,0.023,124.4
2022-01-10T02:40:03,42.805,6.029,0.024,-0.015,-0.005,100.0,104.0,101.0,13.4,1505.2,325.1,-0.8,1.8,2470.503,13.28,0.028,122.0
2022-01-10T02:43:03,42.805,6.029,-0.008,-0.016,-0.024,101.0,102.0,101.0,13.3,1505.2,327.3,-0.7,1.8,2470.535,13.28,0.017,206.6
2022-01-10T02:46:03,42.805,6.029,0.014,-0.025,0.0,102.0,101.0,101.0,13.4,1505.2,331.0,-0.8,1.8,2470.496,13.28,0.028,150.7
2022-01-10T02:49:03,42.805,6.029,0.008,-0.003,-0.002,101.0,102.0,101.0,13.4,1505.2,330.8,-0.8,1.8,2470.549,13.28,0.008,110.6
2022-01-10T02:52:03,42.805,6.029,-0.008,0.014,-0.02,104.0,103.0,100.0,13.4,1505.2,326.6,-0.8,1.8,2470.559,13.29,0.016,330.3
2022-01-10T02:55:03,42.805,6.029,-0.017,-0.006,-0.034,101.0,104.0,101.0,13.4,1505.2,326.1,-0.7,1.8,2470.532,13.29,0.018,250.6
2022-01-10T02:58:03,42.805,6.029,0.007,-0.015,-0.006,102.0,102.0,101.0,13.3,1505.2,327.0,-0.8,1.8,2470.584,13.29,0.016,155.0
2022-01-10T03:04:03,42.805,6.029,0.005,0.008,0.008,101.0,102.0,100.0,13.4,1505.2,325.1,-0.7,1.8,2470.678,13.28,0.009,32.0
2022-01-10T03:07:03,42.805,6.029,-0.001,0.007,-0.011,101.0,102.0,101.0,13.4,1505.2,326.8,-0.7,1.8,2470.579,13.28,0.007,351.9
2022-01-10T03:10:03,42.805,6.029,0.0,-0.002,0.013,101.0,101.0,102.0,13.3,1505.2,326.1,-0.7,1.8,2470.588,13.28,0.002,180.0
2022-01-10T03:13:03,42.805,6.029,-0.001,0.03,0.011,101.0,101.0,101.0,13.4,1505.2,326.2,-0.8,1.8,2470.586,13.28,0.03,358.1
2022-01-10T03:16:03,42.805,6.029,0.004,0.001,-0.01,102.0,102.0,101.0,13.3,1505.2,329.7,-0.8,1.9,2470.59,13.28,0.004,76.0
2022-01-10T03:19:03,42.805,6.029,0.008,0.004,-0.001,103.0,102.0,101.0,13.3,1505.2,327.0,-0.8,1.8,2470.608,13.29,0.008,63.4
2022-01-10T03:22:03,42.805,6.029,-0.007,-0.003,-0.005,101.0,102.0,101.0,13.4,1505.2,329.5,-0.8,1.8,2470.606,13.29,0.007,246.8
2022-01-10T03:25:03,42.805,6.029,0.021,-0.007,0.009,106.0,104.0,100.0,13.3,1505.2,327.0,-0.7,1.8,2470.647,13.29,0.022,108.4
2022-01-10T03:28:03,42.805,6.029,-0.003,0.008,-0.01,102.0,102.0,101.0,13.4,1505.2,329.2,-0.7,1.8,2470.652,13.29,0.008,339.4
2022-01-10T03:31:03,42.805,6.029,-0.001,-0.007,-0.009,103.0,102.0,101.0,13.4,1505.2,326.0,-0.7,1.8,2470.609,13.29,0.007,188.1
2022-01-10T03:34:03,42.805,6.029,0.0,0.008,-0.042,103.0,102.0,100.0,13.3,1505.2,327.0,-0.8,1.8,2470.66,13.29,0.008,0.0
2022-01-10T03:37:03,42.805,6.029,0.013,-0.002,0.002,102.0,102.0,100.0,13.4,1505.2,327.6,-0.8,1.8,2470.631,13.29,0.013,98.7
2022-01-10T03:40:03,42.805,6.029,0.006,-0.014,-0.013,103.0,100.0,100.0,13.4,1505.2,328.2,-0.8,1.8,2470.607,13.29,0.015,156.8
2022-01-10T03:43:03,42.805,6.029,0.009,0.008,-0.015,103.0,101.0,101.0,13.4,1505.2,330.0,-0.7,1.8,2470.631,13.28,0.012,48.4
2022-01-10T03:46:03,42.805,6.029,0.007,-0.004,-0.029,103.0,101.0,100.0,13.3,1505.2,324.4,-0.8,1.8,2470.66,13.29,0.008,119.7
2022-01-10T03:49:03,42.805,6.029,0.016,0.002,0.012,104.0,102.0,101.0,13.4,1505.2,328.3,-0.7,1.8,2470.639,13.29,0.016,82.9
2022-01-10T03:52:03,42.805,6.029,-0.016,-0.019,-0.004,103.0,101.0,102.0,13.3,1505.2,327.7,-0.8,1.8,2470.616,13.29,0.024,220.1
2022-01-10T03:55:03,42.805,6.029,0.008,0.002,0.02,102.0,102.0,101.0,13.3,1505.2,330.1,-0.7,1.8,2470.654,13.29,0.008,76.0
2022-01-10T03:58:03,42.805,6.029,0.001,-0.006,0.012,103.0,101.0,101.0,13.3,1505.2,332.2,-0.8,1.8,2470.651,13.29,0.006,170.5
2022-01-10T04:04:03,42.805,6.029,0.006,-0.007,0.021,100.0,102.0,101.0,13.4,1505.2,326.4,-0.8,1.8,2470.712,13.28,0.009,139.4
2022-01-10T04:07:03,42.805,6.029,-0.001,-0.015,-0.04,102.0,103.0,101.0,13.4,1505.2,330.1,-0.7,1.8,2470.691,13.28,0.015,183.8
2022-01-10T04:10:03,42.805,6.029,-0.006,-0.012,-0.009,102.0,103.0,100.0,13.4,1505.2,324.2,-0.8,1.8,2470.652,13.28,0.013,206.6
2022-01-10T04:13:03,42.805,6.029,0.002,0.01,-0.005,101.0,102.0,101.0,13.4,1505.2,325.9,-0.8,1.8,2470.624,13.28,0.01,11.3
2022-01-10T04:16:03,42.805,6.029,0.009,-0.005,-0.022,102.0,101.0,101.0,13.4,1505.2,327.2,-0.8,1.8,2470.628,13.28,0.01,119.1
2022-01-10T04:19:03,42.805,6.029,-0.007,-0.011,-0.007,102.0,101.0,101.0,13.4,1505.2,325.7,-0.8,1.8,2470.628,13.28,0.013,212.5
2022-01-10T04:22:03,42.805,6.029,0.004,-0.016,0.011,101.0,103.0,101.0,13.4,1505.2,329.2,-0.7,1.8,2470.59,13.29,0.016,166.0
2022-01-10T04:25:03,42.805,6.029,-0.019,0.001,-0.012,102.0,101.0,101.0,13.3,1505.2,326.9,-0.8,1.8,2470.63,13.29,0.019,273.0
2022-01-10T04:28:03,42.805,6.029,0.007,-0.02,-0.012,101.0,102.0,101.0,13.4,1505.2,327.3,-0.8,1.8,2470.62,13.29,0.021,160.7
2022-01-10T04:31:03,42.805,6.029,0.009,-0.009,-0.015,101.0,103.0,101.0,13.4,1505.2,329.4,-0.8,1.8,2470.616,13.29,0.012,135.0
2022-01-10T04:34:03,42.805,6.029,0.0,0.01,-0.027,103.0,102.0,100.0,13.3,1505.2,329.5,-0.7,1.8,2470.641,13.29,0.01,0.0
2022-01-10T04:37:03,42.805,6.029,0.003,0.012,-0.008,101.0,102.0,101.0,13.3,1505.2,324.1,-0.7,1.8,2470.613,13.29,0.012,14.0
2022-01-10T04:40:03,42.805,6.029,-0.016,-0.004,-0.019,102.0,100.0,101.0,13.4,1505.2,324.5,-0.7,1.8,2470.632,13.29,0.016,256.0
2022-01-10T04:43:03,42.805,6.029,0.036,-0.037,-0.023,101.0,101.0,100.0,13.3,1505.2,329.8,-0.8,1.8,2470.622,13.29,0.051,135.8
2022-01-10T04:46:03,42.805,6.029,0.006,0.003,-0.025,101.0,102.0,101.0,13.3,1505.2,328.2,-0.7,1.8,2470.606,13.29,0.006,63.4
2022-01-10T04:49:03,42.805,6.029,0.003,-0.009,-0.031,102.0,100.0,101.0,13.4,1505.2,327.1,-0.8,1.9,2470.622,13.29,0.009,161.6
2022-01-10T04:52:03,42.805,6.029,-0.01,-0.005,-0.002,103.0,101.0,100.0,13.4,1505.2,328.1,-0.7,1.8,2470.628,13.29,0.011,243.4
2022-01-10T04:55:03,42.805,6.029,-0.014,0.006,-0.021,103.0,101.0,100.0,13.4,1505.2,329.0,-0.8,1.8,2470.599,13.29,0.015,293.2
2022-01-10T04:58:03,42.805,6.029,0.008,-0.006,-0.007,103.0,101.0,100.0,13.4,1505.2,328.8,-0.8,1.8,2470.618,13.29,0.01,126.9
2022-01-10T05:04:03,42.805,6.029,0.001,0.009,-0.004,103.0,102.0,100.0,13.4,1505.2,325.6,-0.7,1.8,2470.646,13.28,0.009,6.3
2022-01-10T05:07:03,42.805,6.029,0.003,-0.006,-0.019,102.0,101.0,102.0,13.4,1505.2,331.8,-0.7,1.8,2470.604,13.28,0.006,153.4
2022-01-10T05:10:03,42.805,6.029,0.018,-0.001,-0.005,102.0,102.0,101.0,13.4,1505.2,326.6,-0.7,1.8,2470.584,13.29,0.018,93.2
2022-01-10T05:13:03,42.805,6.029,0.0,-0.02,-0.056,102.0,102.0,101.0,13.4,1505.2,330.7,-0.8,1.9,2470.558,13.29,0.02,180.0
2022-01-10T05:16:03,42.805,6.029,0.005,-0.001,-0.023,102.0,103.0,102.0,13.3,1505.2,325.9,-0.7,1.8,2470.568,13.29,0.005,101.3
2022-01-10T05:19:03,42.805,6.029,-0.006,0.0,0.027,102.0,102.0,102.0,13.4,1505.2,328.8,-0.8,1.8,2470.61,13.29,0.006,270.0
2022-01-10T05:22:03,42.805,6.029,-0.012,0.011,-0.033,102.0,103.0,101.0,13.4,1505.2,329.1,-0.8,1.8,2470.592,13.29,0.016,312.5
2022-01-10T05:25:03,42.805,6.029,0.012,-0.007,-0.008,103.0,103.0,101.0,13.4,1505.2,329.1,-0.8,1.8,2470.573,13.29,0.013,120.3
2022-01-10T05:28:03,42.805,6.029,0.009,0.009,-0.008,103.0,101.0,101.0,13.4,1505.2,325.9,-0.8,1.8,2470.57,13.29,0.012,45.0
2022-01-10T05:31:03,42.805,6.029,0.003,0.0,0.003,103.0,101.0,100.0,13.3,1505.2,329.2,-0.8,1.8,2470.565,13.29,0.003,90.0
2022-01-10T05:34:03,42.805,6.029,0.002,0.015,0.005,102.0,102.0,102.0,13.4,1505.2,326.4,-0.8,1.8,2470.54,13.29,0.015,7.6
2022-01-10T05:37:03,42.805,6.029,-0.018,0.0,-0.018,102.0,101.0,101.0,13.4,1505.2,327.2,-0.8,1.8,2470.514,13.29,0.018,270.0
2022-01-10T05:40:03,42.805,6.029,-0.011,-0.01,0.0,102.0,102.0,101.0,13.4,1505.2,331.8,-0.8,1.8,2470.561,13.29,0.014,227.7
2022-01-10T05:43:03,42.805,6.029,-0.01,-0.009,-0.006,102.0,101.0,100.0,13.3,1505.2,325.1,-0.8,1.8,2470.526,13.29,0.013,228.0
2022-01-10T05:46:03,42.805,6.029,0.012,-0.031,-0.043,102.0,101.0,101.0,13.4,1505.2,325.4,-0.7,1.8,2470.531,13.29,0.033,158.8
2022-01-10T05:49:03,42.805,6.029,0.001,0.009,-0.03,102.0,103.0,100.0,13.3,1505.2,328.8,-0.8,1.8,2470.556,13.29,0.009,6.3
2022-01-10T05:52:03,42.805,6.029,0.005,0.012,0.0,101.0,103.0,100.0,13.4,1505.2,328.9,-0.8,1.8,2470.524,13.29,0.013,22.6
2022-01-10T05:55:03,42.805,6.029,-0.014,0.023,-0.003,102.0,102.0,100.0,13.3,1505.2,326.1,-0.8,1.8,2470.504,13.29,0.026,328.7
2022-01-10T05:58:03,42.805,6.029,-0.015,0.002,0.009,104.0,101.0,101.0,13.3,1505.2,326.9,-0.7,1.8,2470.511,13.29,0.015,277.6
2022-01-10T06:04:03,42.805,6.029,-0.01,0.0,0.008,102.0,102.0,100.0,13.4,1505.2,328.9,-0.8,1.8,2470.53,13.29,0.01,270.0
2022-01-10T06:07:03,42.805,6.029,-0.027,-0.004,0.004,101.0,101.0,102.0,13.4,1505.2,325.4,-0.8,1.8,2470.515,13.29,0.027,261.6
2022-01-10T06:10:03,42.805,6.029,-0.017,0.004,-0.011,103.0,101.0,101.0,13.4,1505.2,329.8,-0.7,1.9,2470.506,13.29,0.017,283.2
2022-01-10T06:13:03,42.805,6.029,0.0,-0.006,-0.009,102.0,102.0,100.0,13.4,1505.2,327.9,-0.7,1.9,2470.482,13.29,0.006,180.0
2022-01-10T06:16:03,42.805,6.029,-0.01,0.001,-0.008,102.0,102.0,101.0,13.4,1505.2,325.9,-0.8,1.8,2470.444,13.29,0.01,275.7
2022-01-10T06:19:03,42.805,6.029,-0.005,0.01,0.002,102.0,102.0,101.0,13.4,1505.2,327.9,-0.8,1.8,2470.474,13.29,0.011,333.4
2022-01-10T06:22:03,42.805,6.029,-0.004,0.001,-0.018,102.0,102.0,102.0,13.4,1505.2,326.1,-0.8,1.8,2470.452,13.29,0.004,284.0
2022-01-10T06:25:03,42.805,6.029,0.003,0.0,0.001,102.0,102.0,101.0,13.4,1505.2,328.3,-0.8,1.8,2470.469,13.29,0.003,90.0
2022-01-10T06:28:03,42.805,6.029,-0.014,0.003,-0.018,101.0,102.0,100.0,13.4,1505.2,328.4,-0.8,1.8,2470.452,13.29,0.014,282.1
2022-01-10T06:31:03,42.805,6.029,0.015,-0.001,-0.021,101.0,102.0,101.0,13.3,1505.2,331.4,-0.8,1.8,2470.441,13.29,0.015,93.8
2022-01-10T06:34:03,42.805,6.029,-0.01,-0.011,-0.03,101.0,101.0,101.0,13.4,1505.2,328.7,-0.7,1.8,2470.468,13.29,0.014,222.3
2022-01-10T06:37:03,42.805,6.029,0.006,0.013,-0.021,102.0,101.0,101.0,13.4,1505.2,328.2,-0.7,1.8,2470.424,13.29,0.014,24.8
2022-01-10T06:40:03,42.805,6.029,-0.008,0.01,-0.028,102.0,101.0,101.0,13.3,1505.2,328.0,-0.8,1.8,2470.46,13.29,0.012,321.3
2022-01-10T06:43:03,42.805,6.029,0.014,-0.002,-0.011,103.0,102.0,102.0,13.4,1505.2,325.9,-0.7,1.8,2470.822,13.29,0.014,98.1
2022-01-10T06:46:03,42.805,6.029,0.021,-0.001,-0.023,103.0,101.0,101.0,13.3,1505.2,330.5,-0.8,1.8,2470.355,13.29,0.021,92.7
2022-01-10T06:49:03,42.805,6.029,0.017,0.001,-0.011,101.0,104.0,101.0,13.4,1505.2,331.7,-0.7,1.8,2470.398,13.29,0.017,86.6
2022-01-10T06:52:03,42.805,6.029,0.027,0.005,0.02,102.0,102.0,101.0,13.3,1505.2,326.3,-0.7,1.8,2470.401,13.29,0.027,79.5
2022-01-10T06:55:03,42.805,6.029,0.0,0.017,0.017,101.0,102.0,101.0,13.3,1505.2,325.0,-0.8,1.8,2470.426,13.29,0.017,0.0
2022-01-10T06:58:03,42.805,6.029,-0.004,0.004,0.016,102.0,102.0,101.0,13.4,1505.2,329.8,-0.7,1.9,2470.425,13.29,0.005,315.0
2022-01-10T07:04:03,42.805,6.029,-0.018,-0.014,-0.041,101.0,103.0,101.0,13.4,1505.2,327.0,-0.8,1.8,2470.465,13.29,0.022,232.1
2022-01-10T07:07:03,42.805,6.029,0.006,-0.001,0.008,102.0,101.0,101.0,13.3,1505.2,329.1,-0.7,1.8,2470.412,13.29,0.006,99.5
2022-01-10T07:10:03,42.805,6.029,-0.001,0.0,-0.021,103.0,101.0,101.0,13.4,1505.2,325.8,-0.8,1.8,2470.404,13.29,0.001,270.0
2022-01-10T07:13:03,42.805,6.029,-0.002,-0.002,-0.007,102.0,102.0,101.0,13.4,1505.2,325.4,-0.8,1.8,2470.353,13.29,0.002,225.0
2022-01-10T07:16:03,42.805,6.029,0.01,0.002,-0.033,100.0,102.0,101.0,13.4,1505.2,326.3,-0.7,1.8,2470.361,13.29,0.01,78.7
2022-01-10T07:19:03,42.805,6.029,0.007,-0.003,-0.007,102.0,103.0,100.0,13.3,1505.2,330.3,-0.7,1.8,2470.366,13.29,0.007,113.2
2022-01-10T07:22:03,42.805,6.029,0.0,-0.013,-0.002,103.0,102.0,101.0,13.3,1505.2,329.1,-0.8,1.9,2470.297,13.29,0.013,180.0
2022-01-10T07:25:03,42.805,6.029,0.014,0.006,-0.026,102.0,103.0,102.0,13.3,1505.2,324.8,-0.8,1.8,2470.296,13.29,0.015,66.8
2022-01-10T07:28:03,42.805,6.029,0.03,-0.002,0.006,101.0,102.0,101.0,13.4,1505.2,327.2,-0.7,1.8,2470.292,13.29,0.03,93.8
2022-01-10T07:31:03,42.805,6.029,-0.001,-0.017,-0.016,102.0,102.0,101.0,13.4,1505.2,325.9,-0.8,1.8,2470.327,13.29,0.017,183.4
2022-01-10T07:34:03,42.805,6.029,-0.009,0.007,-0.005,102.0,102.0,100.0,13.3,1505.2,325.5,-0.8,1.8,2470.4,13.29,0.011,307.9
2022-01-10T07:37:03,42.805,6.029,-0.038,0.0,-0.022,103.0,101.0,102.0,13.4,1505.2,326.3,-0.7,1.8,2470.517,13.29,0.038,270.0
2022-01-10T07:40:03,42.805,6.029,0.024,0.006,0.023,102.0,101.0,101.0,13.4,1505.2,328.3,-0.7,1.8,2470.586,13.29,0.024,76.0
2022-01-10T07:43:03,42.805,6.029,-0.012,0.0,0.019,102.0,103.0,100.0,13.4,1505.2,328.7,-0.8,1.8,2470.224,13.29,0.012,270.0
2022-01-10T07:46:03,42.805,6.029,-0.009,-0.027,-0.039,102.0,101.0,102.0,13.4,1505.2,330.1,-0.7,1.9,2470.241,13.29,0.028,198.4
2022-01-10T07:49:03,42.805,6.029,0.014,-0.005,-0.029,102.0,101.0,101.0,13.4,1505.2,331.7,-0.7,1.8,2470.234,13.29,0.014,109.6
2022-01-10T07:52:03,42.805,6.029,0.001,-0.024,-0.042,103.0,102.0,101.0,13.3,1505.2,324.5,-0.7,1.8,2470.24,13.29,0.024,177.6
2022-01-10T07:55:03,42.805,6.029,0.01,-0.016,0.002,103.0,102.0,101.0,13.4,1505.2,324.2,-0.8,1.8,2470.208,13.29,0.018,148.0
2022-01-10T07:58:03,42.805,6.029,0.015,0.008,-0.011,102.0,103.0,101.0,13.4,1505.2,324.4,-0.8,1.9,2470.205,13.29,0.017,61.9
2022-01-10T08:04:03,42.805,6.029,0.015,0.0,-0.013,103.0,102.0,101.0,13.4,1505.2,325.8,-0.8,1.9,2470.217,13.28,0.015,90.0
2022-01-10T08:07:03,42.805,6.029,0.035,-0.034,-0.006,102.0,101.0,101.0,13.4,1505.2,329.4,-0.8,1.8,2470.196,13.28,0.048,134.2
2022-01-10T08:10:03,42.805,6.029,0.001,0.005,-0.026,102.0,100.0,101.0,13.4,1505.2,326.1,-0.7,1.8,2470.162,13.28,0.005,11.3
2022-01-10T08:13:03,42.805,6.029,0.012,-0.021,-0.038,101.0,103.0,101.0,13.3,1505.2,328.0,-0.8,1.8,2470.221,13.28,0.024,150.3
2022-01-10T08:16:03,42.805,6.029,0.026,-0.01,0.004,101.0,103.0,101.0,13.4,1505.2,329.1,-0.7,1.8,2470.177,13.28,0.027,111.0
2022-01-10T08:19:03,42.805,6.029,0.009,-0.003,-0.008,101.0,102.0,102.0,13.4,1505.2,324.6,-0.8,1.8,2470.217,13.28,0.009,108.4
2022-01-10T08:22:03,42.805,6.029,-0.001,-0.001,-0.018,102.0,103.0,101.0,13.3,1505.2,327.7,-0.8,1.8,2470.217,13.28,0.001,225.0
2022-01-10T08:25:03,42.805,6.029,0.009,-0.009,-0.009,100.0,102.0,100.0,13.4,1505.2,328.6,-0.8,1.8,2470.264,13.28,0.012,135.0
2022-01-10T08:28:03,42.805,6.029,0.003,-0.018,-0.01,102.0,101.0,100.0,13.4,1505.2,327.6,-0.8,1.8,2470.22,13.28,0.018,170.5
2022-01-10T08:31:03,42.805,6.029,0.013,-0.006,-0.016,103.0,102.0,101.0,13.4,1505.2,328.2,-0.8,1.8,2470.268,13.28,0.014,114.8
2022-01-10T08:34:03,42.805,6.029,0.023,-0.011,0.024,102.0,102.0,101.0,13.4,1505.2,323.3,-0.8,1.8,2470.223,13.28,0.025,115.6
2022-01-10T08:37:03,42.805,6.029,0.026,-0.012,-0.014,101.0,101.0,101.0,13.4,1505.2,329.7,-0.7,1.8,2470.264,13.28,0.028,114.8
2022-01-10T08:40:03,42.805,6.029,0.023,-0.019,-0.008,103.0,102.0,103.0,13.4,1505.2,328.7,-0.8,1.8,2470.278,13.28,0.029,129.6
2022-01-10T08:43:03,42.805,6.029,-0.017,-0.008,-0.021,102.0,103.0,100.0,13.4,1505.2,327.3,-0.8,1.8,2470.258,13.28,0.018,244.8
2022-01-10T08:46:03,42.805,6.029,0.0,0.0,-0.027,99.0,102.0,103.0,13.4,1505.2,331.2,-0.8,1.8,2470.278,13.28,0.0,0.0
2022-01-10T08:49:03,42.805,6.029,-0.003,-0.015,-0.033,103.0,101.0,101.0,13.4,1505.2,326.5,-0.8,1.8,2470.293,13.28,0.015,191.3
2022-01-10T08:52:03,42.805,6.029,0.01,-0.015,-0.003,103.0,101.0,100.0,13.3,1505.2,328.7,-0.8,1.8,2470.286,13.28,0.018,146.3
2022-01-10T08:55:03,42.805,6.029,-0.004,-0.03,-0.047,100.0,101.0,100.0,13.4,1505.2,331.5,-0.8,1.8,2470.31,13.28,0.03,187.6
2022-01-10T08:58:03,42.805,6.029,0.006,-0.002,-0.003,102.0,101.0,101.0,13.4,1505.2,330.9,-0.7,1.8,2470.288,13.28,0.006,108.4
2022-01-10T09:04:03,42.805,6.029,0.009,-0.015,-0.026,101.0,101.0,101.0,13.4,1505.2,329.6,-0.8,1.8,2470.322,13.28,0.017,149.0
2022-01-10T09:07:03,42.805,6.029,0.012,-0.019,-0.027,101.0,100.0,101.0,13.3,1505.2,324.4,-0.7,1.8,2470.321,13.28,0.022,147.7
2022-01-10T09:10:03,42.805,6.029,0.012,-0.012,-0.013,101.0,101.0,102.0,13.4,1505.2,328.7,-0.8,1.8,2470.358,13.28,0.016,135.0
2022-01-10T09:13:03,42.805,6.029,0.023,-0.027,-0.023,101.0,101.0,101.0,13.4,1505.2,329.7,-0.8,1.8,2470.324,13.28,0.035,139.6
2022-01-10T09:16:03,42.805,6.029,0.011,-0.025,0.005,102.0,101.0,101.0,13.4,1505.2,326.0,-0.8,1.8,2470.327,13.28,0.027,156.3
2022-01-10T09:19:03,42.805,6.029,0.028,-0.007,0.003,101.0,101.0,100.0,13.4,1505.2,329.2,-0.8,1.8,2470.346,13.28,0.028,104.0
2022-01-10T09:22:03,42.805,6.029,0.024,-0.024,-0.013,102.0,101.0,100.0,13.3,1505.2,325.8,-0.7,1.8,2470.381,13.28,0.033,135.0
2022-01-10T09:25:03,42.805,6.029,0.004,-0.003,0.018,101.0,100.0,100.0,13.3,1505.2,326.9,-0.8,1.9,2470.355,13.28,0.005,126.9
2022-01-10T09:28:03,42.805,6.029,0.009,0.0,-0.001,101.0,100.0,101.0,13.4,1505.2,326.3,-0.7,1.8,2470.352,13.28,0.009,90.0
2022-01-10T09:31:03,42.805,6.029,0.002,-0.012,0.004,101.0,100.0,101.0,13.3,1505.2,327.4,-0.8,1.8,2470.387,13.28,0.012,170.5
2022-01-10T09:34:03,42.805,6.029,0.001,0.023,-0.005,101.0,104.0,99.0,13.4,1505.2,327.4,-0.7,1.8,2470.377,13.28,0.023,2.5
2022-01-10T09:37:03,42.805,6.029,0.025,0.0,-0.006,101.0,102.0,101.0,13.4,1505.2,324.4,-0.7,1.8,2470.368,13.28,0.025,90.0
2022-01-10T09:40:03,42.805,6.029,0.017,-0.025,-0.021,101.0,100.0,101.0,13.4,1505.2,329.0,-0.8,1.8,2470.402,13.28,0.03,145.8
2022-01-10T09:43:03,42.805,6.029,0.025,-0.011,-0.012,101.0,102.0,101.0,13.4,1505.2,325.4,-0.8,1.8,2470.408,13.28,0.027,113.7
2022-01-10T09:46:03,42.805,6.029,0.007,-0.002,-0.02,101.0,101.0,100.0,13.4,1505.2,325.4,-0.8,1.8,2470.433,13.28,0.007,105.9
2022-01-10T09:49:03,42.805,6.029,-0.006,-0.006,-0.007,101.0,101.0,100.0,13.4,1505.2,326.9,-0.8,1.8,2470.412,13.28,0.008,225.0
2022-01-10T09:52:03,42.805,6.029,-0.001,0.007,0.0,102.0,103.0,101.0,13.4,1505.2,326.9,-0.8,1.8,2470.42,13.28,0.007,351.9
2022-01-10T09:55:03,42.805,6.029,0.007,-0.011,-0.022,101.0,102.0,101.0,13.4,1505.2,325.7,-0.7,1.9,2470.414,13.28,0.013,147.5
2022-01-10T09:58:03,42.805,6.029,0.019,-0.009,-0.015,101.0,103.0,101.0,13.4,1505.2,328.8,-0.7,1.9,2470.465,13.28,0.021,115.3